Location: Cisewo
(53.3833°N, 14.9000°E)
Time: 13:20:17
(UTC+00:00)

USA 229 - Pass Details

Date: 29 July 2021
Orbit: 956 x 1256 km, 63.5° (Epoch: 08 August)

Event Time Altitude Azimuth Distance (km) Brightness Sun altitude
Rises 00:50:52 0° 304° (WNW) 4,027 6.8 -14.5°
Reaches altitude 10° 00:57:19 10° 263° (W) 3,144 5.8 -14.1°
Maximum altitude 00:57:50 10° 259° (W) 3,143 5.8 -14.0°
Drops below altitude 10° 00:58:21 10° 255° (WSW) 3,155 5.8 -14.0°
Enters shadow 00:59:39 - 245° (WSW) 3,233 5.7 -13.9°
